contact:dominique.lefevre@mio.osupytheas.fr, maurice.libes@osupytheas.fr, didier.mallarino@osupytheas.fr
Project:EMSO http://www.emso-fr.org/EMSO-France
Depth: 2436.0 m
Title:EMSO Ligure Ouest : Data MII capteur MICROCAT
DateTime_Computer,Latitude,Longitude,Temperature,Conductivity,Pressure,DateTime_Instrument
DateTime_Computer,Latitude,Longitude,degC,S m-1,dbar,DateTime_Instrument
2022-12-20T00:01:32Z,42.805,6.029,13.3006,4.60061,2470.6,2022-12-20T02:07:26Z
2022-12-20T00:04:35Z,42.805,6.029,13.3010,4.60062,2470.624,2022-12-20T02:10:29Z
2022-12-20T00:07:38Z,42.805,6.029,13.3014,4.60062,2470.624,2022-12-20T02:13:32Z
2022-12-20T00:10:41Z,42.805,6.029,13.3011,4.60060,2470.646,2022-12-20T02:16:35Z
2022-12-20T00:13:44Z,42.805,6.029,13.3014,4.60062,2470.624,2022-12-20T02:19:38Z
2022-12-20T00:16:47Z,42.805,6.029,13.3011,4.60061,2470.6,2022-12-20T02:22:41Z
2022-12-20T00:19:50Z,42.805,6.029,13.3009,4.60060,2470.637,2022-12-20T02:25:45Z
2022-12-20T00:22:53Z,42.805,6.029,13.3009,4.60061,2470.624,2022-12-20T02:28:48Z
2022-12-20T00:25:56Z,42.805,6.029,13.3009,4.60060,2470.624,2022-12-20T02:31:51Z
2022-12-20T00:28:59Z,42.805,6.029,13.3014,4.60062,2470.624,2022-12-20T02:34:54Z
2022-12-20T00:32:02Z,42.805,6.029,13.3014,4.60061,2470.624,2022-12-20T02:37:57Z
2022-12-20T00:35:06Z,42.805,6.029,13.3013,4.60063,2470.646,2022-12-20T02:41:00Z
2022-12-20T00:38:09Z,42.805,6.029,13.3013,4.60063,2470.624,2022-12-20T02:44:03Z
2022-12-20T00:41:12Z,42.805,6.029,13.3011,4.60062,2470.624,2022-12-20T02:47:06Z
2022-12-20T00:44:15Z,42.805,6.029,13.3011,4.60062,2470.646,2022-12-20T02:50:09Z
2022-12-20T00:47:18Z,42.805,6.029,13.3013,4.60061,2470.624,2022-12-20T02:53:12Z
2022-12-20T00:50:21Z,42.805,6.029,13.3011,4.60061,2470.624,2022-12-20T02:56:15Z
2022-12-20T00:53:24Z,42.805,6.029,13.3015,4.60061,2470.67,2022-12-20T02:59:19Z
2022-12-20T00:56:27Z,42.805,6.029,13.3011,4.60062,2470.661,2022-12-20T03:02:22Z
2022-12-20T00:59:30Z,42.805,6.029,13.3013,4.60062,2470.637,2022-12-20T03:05:25Z
2022-12-20T01:02:33Z,42.805,6.029,13.3014,4.60062,2470.637,2022-12-20T03:08:28Z
2022-12-20T01:05:36Z,42.805,6.029,13.3014,4.60062,2470.661,2022-12-20T03:11:31Z
2022-12-20T01:08:40Z,42.805,6.029,13.3016,4.60062,2470.646,2022-12-20T03:14:34Z
2022-12-20T01:11:43Z,42.805,6.029,13.3014,4.60062,2470.67,2022-12-20T03:17:37Z
2022-12-20T01:14:46Z,42.805,6.029,13.3012,4.60062,2470.637,2022-12-20T03:20:40Z
2022-12-20T01:17:49Z,42.805,6.029,13.3010,4.60062,2470.646,2022-12-20T03:23:43Z
2022-12-20T01:20:52Z,42.805,6.029,13.3013,4.60062,2470.684,2022-12-20T03:26:46Z
2022-12-20T01:23:55Z,42.805,6.029,13.3011,4.60062,2470.67,2022-12-20T03:29:49Z
2022-12-20T01:26:58Z,42.805,6.029,13.3013,4.60062,2470.67,2022-12-20T03:32:53Z
2022-12-20T01:30:01Z,42.805,6.029,13.3009,4.60063,2470.693,2022-12-20T03:35:56Z
2022-12-20T01:33:04Z,42.805,6.029,13.3014,4.60061,2470.707,2022-12-20T03:38:59Z
2022-12-20T01:36:07Z,42.805,6.029,13.3014,4.60061,2470.646,2022-12-20T03:42:02Z
2022-12-20T01:39:10Z,42.805,6.029,13.3013,4.60062,2470.693,2022-12-20T03:45:05Z
2022-12-20T01:42:13Z,42.805,6.029,13.3017,4.60062,2470.67,2022-12-20T03:48:08Z
2022-12-20T01:45:17Z,42.805,6.029,13.3015,4.60062,2470.684,2022-12-20T03:51:11Z
2022-12-20T01:48:20Z,42.805,6.029,13.3012,4.60061,2470.693,2022-12-20T03:54:14Z
2022-12-20T01:51:23Z,42.805,6.029,13.3012,4.60061,2470.646,2022-12-20T03:57:17Z
2022-12-20T01:54:26Z,42.805,6.029,13.3010,4.60060,2470.707,2022-12-20T04:00:20Z
2022-12-20T01:57:29Z,42.805,6.029,13.3014,4.60061,2470.693,2022-12-20T04:03:23Z
2022-12-20T02:00:32Z,42.805,6.029,13.3013,4.60061,2470.707,2022-12-20T04:06:26Z
2022-12-20T02:03:35Z,42.805,6.029,13.3014,4.60062,2470.693,2022-12-20T04:09:30Z
2022-12-20T02:06:38Z,42.805,6.029,13.3011,4.60060,2470.67,2022-12-20T04:12:33Z
2022-12-20T02:09:41Z,42.805,6.029,13.3014,4.60061,2470.684,2022-12-20T04:15:36Z
2022-12-20T02:12:44Z,42.805,6.029,13.3010,4.60061,2470.67,2022-12-20T04:18:39Z
2022-12-20T02:15:47Z,42.805,6.029,13.3014,4.60062,2470.73,2022-12-20T04:21:42Z
2022-12-20T02:18:50Z,42.805,6.029,13.3011,4.60063,2470.73,2022-12-20T04:24:45Z
2022-12-20T02:21:54Z,42.805,6.029,13.3010,4.60062,2470.693,2022-12-20T04:27:48Z
2022-12-20T02:24:57Z,42.805,6.029,13.3011,4.60062,2470.707,2022-12-20T04:30:51Z
2022-12-20T02:28:00Z,42.805,6.029,13.3012,4.60062,2470.693,2022-12-20T04:33:54Z
2022-12-20T02:31:03Z,42.805,6.029,13.3009,4.60062,2470.717,2022-12-20T04:36:57Z
2022-12-20T02:34:06Z,42.805,6.029,13.3011,4.60062,2470.707,2022-12-20T04:40:00Z
2022-12-20T02:37:09Z,42.805,6.029,13.3007,4.60061,2470.707,2022-12-20T04:43:04Z
2022-12-20T02:40:12Z,42.805,6.029,13.3014,4.60062,2470.717,2022-12-20T04:46:07Z
2022-12-20T02:43:15Z,42.805,6.029,13.3011,4.60064,2470.74,2022-12-20T04:49:10Z
2022-12-20T02:46:18Z,42.805,6.029,13.3014,4.60061,2470.717,2022-12-20T04:52:13Z
2022-12-20T02:49:21Z,42.805,6.029,13.3014,4.60062,2470.73,2022-12-20T04:55:16Z
2022-12-20T02:52:24Z,42.805,6.029,13.3014,4.60062,2470.754,2022-12-20T04:58:19Z
2022-12-20T02:55:28Z,42.805,6.029,13.3011,4.60061,2470.717,2022-12-20T05:01:22Z
2022-12-20T02:58:31Z,42.805,6.029,13.3013,4.60062,2470.754,2022-12-20T05:04:25Z
2022-12-20T03:01:34Z,42.805,6.029,13.3014,4.60062,2470.717,2022-12-20T05:07:28Z
2022-12-20T03:04:37Z,42.805,6.029,13.3011,4.60062,2470.73,2022-12-20T05:10:31Z
2022-12-20T03:07:40Z,42.805,6.029,13.3010,4.60062,2470.717,2022-12-20T05:13:34Z
2022-12-20T03:10:43Z,42.805,6.029,13.3011,4.60062,2470.717,2022-12-20T05:16:38Z
2022-12-20T03:13:46Z,42.805,6.029,13.3009,4.60062,2470.74,2022-12-20T05:19:41Z
2022-12-20T03:16:49Z,42.805,6.029,13.3014,4.60062,2470.74,2022-12-20T05:22:44Z
2022-12-20T03:19:52Z,42.805,6.029,13.3012,4.60062,2470.763,2022-12-20T05:25:47Z
2022-12-20T03:22:55Z,42.805,6.029,13.3013,4.60062,2470.763,2022-12-20T05:28:50Z
2022-12-20T03:25:58Z,42.805,6.029,13.3013,4.60062,2470.754,2022-12-20T05:31:53Z
2022-12-20T03:29:01Z,42.805,6.029,13.3010,4.60061,2470.74,2022-12-20T05:34:56Z
2022-12-20T03:32:05Z,42.805,6.029,13.3015,4.60061,2470.777,2022-12-20T05:37:59Z
2022-12-20T03:35:08Z,42.805,6.029,13.3014,4.60062,2470.74,2022-12-20T05:41:02Z
2022-12-20T03:38:11Z,42.805,6.029,13.3011,4.60062,2470.763,2022-12-20T05:44:05Z
2022-12-20T03:41:14Z,42.805,6.029,13.3011,4.60062,2470.777,2022-12-20T05:47:08Z
2022-12-20T03:44:17Z,42.805,6.029,13.3011,4.60061,2470.74,2022-12-20T05:50:11Z
2022-12-20T03:47:20Z,42.805,6.029,13.3010,4.60062,2470.717,2022-12-20T05:53:15Z
2022-12-20T03:50:23Z,42.805,6.029,13.3012,4.60061,2470.74,2022-12-20T05:56:18Z
2022-12-20T03:53:26Z,42.805,6.029,13.3014,4.60062,2470.763,2022-12-20T05:59:21Z
2022-12-20T03:56:29Z,42.805,6.029,13.3011,4.60061,2470.777,2022-12-20T06:02:24Z
2022-12-20T03:59:32Z,42.805,6.029,13.3014,4.60064,2470.777,2022-12-20T06:05:27Z
2022-12-20T04:02:35Z,42.805,6.029,13.3013,4.60062,2470.763,2022-12-20T06:08:30Z
2022-12-20T04:05:38Z,42.805,6.029,13.3013,4.60063,2470.754,2022-12-20T06:11:33Z
2022-12-20T04:08:42Z,42.805,6.029,13.3011,4.60062,2470.763,2022-12-20T06:14:36Z
2022-12-20T04:11:45Z,42.805,6.029,13.3011,4.60061,2470.773,2022-12-20T06:17:39Z
2022-12-20T04:14:48Z,42.805,6.029,13.3013,4.60062,2470.74,2022-12-20T06:20:42Z
2022-12-20T04:17:51Z,42.805,6.029,13.3014,4.60064,2470.763,2022-12-20T06:23:45Z
2022-12-20T04:20:54Z,42.805,6.029,13.3011,4.60062,2470.8,2022-12-20T06:26:49Z
2022-12-20T04:23:57Z,42.805,6.029,13.3013,4.60062,2470.754,2022-12-20T06:29:52Z
2022-12-20T04:27:00Z,42.805,6.029,13.3011,4.60062,2470.777,2022-12-20T06:32:55Z
2022-12-20T04:30:03Z,42.805,6.029,13.3013,4.60063,2470.763,2022-12-20T06:35:58Z
2022-12-20T04:33:06Z,42.805,6.029,13.3014,4.60062,2470.777,2022-12-20T06:39:01Z
2022-12-20T04:36:09Z,42.805,6.029,13.3014,4.60062,2470.777,2022-12-20T06:42:04Z
2022-12-20T04:39:12Z,42.805,6.029,13.3010,4.60062,2470.787,2022-12-20T06:45:07Z
2022-12-20T04:42:16Z,42.805,6.029,13.3014,4.60062,2470.763,2022-12-20T06:48:10Z
2022-12-20T04:45:19Z,42.805,6.029,13.3012,4.60062,2470.763,2022-12-20T06:51:13Z
2022-12-20T04:48:22Z,42.805,6.029,13.3014,4.60062,2470.787,2022-12-20T06:54:16Z
2022-12-20T04:51:25Z,42.805,6.029,13.3015,4.60062,2470.787,2022-12-20T06:57:19Z
2022-12-20T04:54:28Z,42.805,6.029,13.3013,4.60062,2470.787,2022-12-20T07:00:23Z
2022-12-20T04:57:31Z,42.805,6.029,13.3014,4.60062,2470.75,2022-12-20T07:03:26Z
2022-12-20T05:00:34Z,42.805,6.029,13.3011,4.60062,2470.763,2022-12-20T07:06:29Z
2022-12-20T05:03:37Z,42.805,6.029,13.3010,4.60062,2470.754,2022-12-20T07:09:32Z
2022-12-20T05:06:40Z,42.805,6.029,13.3009,4.60062,2470.74,2022-12-20T07:12:35Z
2022-12-20T05:09:43Z,42.805,6.029,13.3009,4.60062,2470.74,2022-12-20T07:15:38Z
2022-12-20T05:12:46Z,42.805,6.029,13.3015,4.60062,2470.763,2022-12-20T07:18:41Z
2022-12-20T05:15:50Z,42.805,6.029,13.3013,4.60062,2470.75,2022-12-20T07:21:44Z
2022-12-20T05:18:53Z,42.805,6.029,13.3014,4.60062,2470.777,2022-12-20T07:24:47Z
2022-12-20T05:21:56Z,42.805,6.029,13.3009,4.60062,2470.74,2022-12-20T07:27:50Z
2022-12-20T05:24:59Z,42.805,6.029,13.3016,4.60062,2470.787,2022-12-20T07:30:53Z
2022-12-20T05:28:02Z,42.805,6.029,13.3012,4.60062,2470.74,2022-12-20T07:33:56Z
2022-12-20T05:31:05Z,42.805,6.029,13.3014,4.60062,2470.74,2022-12-20T07:37:00Z
2022-12-20T05:34:08Z,42.805,6.029,13.3013,4.60062,2470.777,2022-12-20T07:40:03Z
2022-12-20T05:37:11Z,42.805,6.029,13.3015,4.60061,2470.754,2022-12-20T07:43:06Z
2022-12-20T05:40:14Z,42.805,6.029,13.3011,4.60063,2470.763,2022-12-20T07:46:09Z
2022-12-20T05:43:17Z,42.805,6.029,13.3010,4.60062,2470.763,2022-12-20T07:49:12Z
2022-12-20T05:46:20Z,42.805,6.029,13.3012,4.60062,2470.787,2022-12-20T07:52:15Z
2022-12-20T05:49:23Z,42.805,6.029,13.3009,4.60061,2470.74,2022-12-20T07:55:18Z
2022-12-20T05:52:27Z,42.805,6.029,13.3012,4.60061,2470.754,2022-12-20T07:58:21Z
2022-12-20T05:55:30Z,42.805,6.029,13.3012,4.60062,2470.754,2022-12-20T08:01:24Z
2022-12-20T05:58:33Z,42.805,6.029,13.3014,4.60062,2470.754,2022-12-20T08:04:27Z
2022-12-20T06:01:36Z,42.805,6.029,13.3011,4.60062,2470.74,2022-12-20T08:07:30Z
2022-12-20T06:04:39Z,42.805,6.029,13.3012,4.60062,2470.763,2022-12-20T08:10:34Z
2022-12-20T06:07:42Z,42.805,6.029,13.3010,4.60061,2470.74,2022-12-20T08:13:37Z
2022-12-20T06:10:45Z,42.805,6.029,13.3011,4.60061,2470.717,2022-12-20T08:16:40Z
2022-12-20T06:13:48Z,42.805,6.029,13.3010,4.60061,2470.726,2022-12-20T08:19:43Z
2022-12-20T06:16:51Z,42.805,6.029,13.3011,4.60060,2470.73,2022-12-20T08:22:46Z
2022-12-20T06:19:54Z,42.805,6.029,13.3014,4.60060,2470.787,2022-12-20T08:25:49Z
2022-12-20T06:22:57Z,42.805,6.029,13.3013,4.60062,2470.754,2022-12-20T08:28:52Z
2022-12-20T06:26:01Z,42.805,6.029,13.3017,4.60062,2470.74,2022-12-20T08:31:55Z
2022-12-20T06:29:04Z,42.805,6.029,13.3014,4.60062,2470.754,2022-12-20T08:34:58Z
2022-12-20T06:32:07Z,42.805,6.029,13.3008,4.60062,2470.74,2022-12-20T08:38:01Z
2022-12-20T06:35:10Z,42.805,6.029,13.3009,4.60062,2470.74,2022-12-20T08:41:04Z
2022-12-20T06:38:13Z,42.805,6.029,13.3011,4.60062,2470.74,2022-12-20T08:44:08Z
2022-12-20T06:41:16Z,42.805,6.029,13.3011,4.60062,2470.73,2022-12-20T08:47:11Z
2022-12-20T06:44:19Z,42.805,6.029,13.3013,4.60064,2470.754,2022-12-20T08:50:14Z
2022-12-20T06:47:22Z,42.805,6.029,13.3008,4.60062,2470.74,2022-12-20T08:53:17Z
2022-12-20T06:50:25Z,42.805,6.029,13.3013,4.60061,2470.717,2022-12-20T08:56:20Z
2022-12-20T06:53:28Z,42.805,6.029,13.3011,4.60062,2470.717,2022-12-20T08:59:23Z
2022-12-20T06:56:31Z,42.805,6.029,13.3011,4.60062,2470.73,2022-12-20T09:02:26Z
2022-12-20T06:59:34Z,42.805,6.029,13.3011,4.60063,2470.717,2022-12-20T09:05:29Z
2022-12-20T07:02:38Z,42.805,6.029,13.3009,4.60063,2470.754,2022-12-20T09:08:32Z
2022-12-20T07:05:41Z,42.805,6.029,13.3012,4.60062,2470.754,2022-12-20T09:11:35Z
2022-12-20T07:08:44Z,42.805,6.029,13.3013,4.60061,2470.717,2022-12-20T09:14:38Z
2022-12-20T07:11:47Z,42.805,6.029,13.3010,4.60062,2470.763,2022-12-20T09:17:41Z
2022-12-20T07:14:50Z,42.805,6.029,13.3014,4.60062,2470.73,2022-12-20T09:20:45Z
2022-12-20T07:17:53Z,42.805,6.029,13.3009,4.60062,2470.717,2022-12-20T09:23:48Z
2022-12-20T07:20:56Z,42.805,6.029,13.3013,4.60062,2470.693,2022-12-20T09:26:51Z
2022-12-20T07:23:59Z,42.805,6.029,13.3011,4.60062,2470.717,2022-12-20T09:29:54Z
2022-12-20T07:27:02Z,42.805,6.029,13.3011,4.60062,2470.74,2022-12-20T09:32:57Z
2022-12-20T07:30:05Z,42.805,6.029,13.3012,4.60063,2470.693,2022-12-20T09:36:00Z
2022-12-20T07:33:08Z,42.805,6.029,13.3011,4.60061,2470.693,2022-12-20T09:39:03Z
2022-12-20T07:36:12Z,42.805,6.029,13.3014,4.60062,2470.717,2022-12-20T09:42:06Z
2022-12-20T07:39:15Z,42.805,6.029,13.3010,4.60062,2470.693,2022-12-20T09:45:09Z
2022-12-20T07:42:18Z,42.805,6.029,13.3011,4.60062,2470.693,2022-12-20T09:48:12Z
2022-12-20T07:45:21Z,42.805,6.029,13.3012,4.60062,2470.717,2022-12-20T09:51:15Z
2022-12-20T07:48:24Z,42.805,6.029,13.3008,4.60062,2470.707,2022-12-20T09:54:19Z
2022-12-20T07:51:27Z,42.805,6.029,13.3010,4.60062,2470.717,2022-12-20T09:57:22Z
2022-12-20T07:54:30Z,42.805,6.029,13.3011,4.60062,2470.717,2022-12-20T10:00:25Z
2022-12-20T07:57:33Z,42.805,6.029,13.3015,4.60061,2470.717,2022-12-20T10:03:28Z
2022-12-20T08:00:36Z,42.805,6.029,13.3015,4.60062,2470.74,2022-12-20T10:06:31Z
2022-12-20T08:03:39Z,42.805,6.029,13.3009,4.60062,2470.73,2022-12-20T10:09:34Z
2022-12-20T08:06:42Z,42.805,6.029,13.3011,4.60063,2470.693,2022-12-20T10:12:37Z
2022-12-20T08:09:45Z,42.805,6.029,13.3009,4.60062,2470.707,2022-12-20T10:15:40Z
2022-12-20T08:12:49Z,42.805,6.029,13.3014,4.60062,2470.717,2022-12-20T10:18:43Z
2022-12-20T08:15:52Z,42.805,6.029,13.3013,4.60062,2470.717,2022-12-20T10:21:46Z
2022-12-20T08:18:55Z,42.805,6.029,13.3012,4.60063,2470.717,2022-12-20T10:24:49Z
2022-12-20T08:21:58Z,42.805,6.029,13.3014,4.60062,2470.707,2022-12-20T10:27:53Z
2022-12-20T08:25:01Z,42.805,6.029,13.3013,4.60062,2470.717,2022-12-20T10:30:56Z
2022-12-20T08:28:04Z,42.805,6.029,13.3014,4.60062,2470.73,2022-12-20T10:33:59Z
2022-12-20T08:31:07Z,42.805,6.029,13.3007,4.60062,2470.707,2022-12-20T10:37:02Z
2022-12-20T08:34:10Z,42.805,6.029,13.3013,4.60062,2470.73,2022-12-20T10:40:05Z
2022-12-20T08:37:13Z,42.805,6.029,13.3016,4.60061,2470.717,2022-12-20T10:43:08Z
2022-12-20T08:40:16Z,42.805,6.029,13.3009,4.60062,2470.717,2022-12-20T10:46:11Z
2022-12-20T08:43:20Z,42.805,6.029,13.3011,4.60062,2470.693,2022-12-20T10:49:14Z
2022-12-20T08:46:23Z,42.805,6.029,13.3011,4.60062,2470.707,2022-12-20T10:52:17Z
2022-12-20T08:49:26Z,42.805,6.029,13.3015,4.60061,2470.693,2022-12-20T10:55:20Z
2022-12-20T08:52:29Z,42.805,6.029,13.3012,4.60060,2470.717,2022-12-20T10:58:24Z
2022-12-20T08:55:32Z,42.805,6.029,13.3011,4.60062,2470.707,2022-12-20T11:01:27Z
2022-12-20T08:58:35Z,42.805,6.029,13.3011,4.60062,2470.707,2022-12-20T11:04:30Z
2022-12-20T09:01:38Z,42.805,6.029,13.3014,4.60062,2470.707,2022-12-20T11:07:33Z
2022-12-20T09:04:41Z,42.805,6.029,13.3009,4.60062,2470.693,2022-12-20T11:10:36Z
2022-12-20T09:07:44Z,42.805,6.029,13.3015,4.60061,2470.707,2022-12-20T11:13:39Z
2022-12-20T09:10:47Z,42.805,6.029,13.3011,4.60063,2470.73,2022-12-20T11:16:42Z
2022-12-20T09:13:50Z,42.805,6.029,13.3011,4.60063,2470.67,2022-12-20T11:19:45Z
2022-12-20T09:16:54Z,42.805,6.029,13.3012,4.60062,2470.73,2022-12-20T11:22:48Z
2022-12-20T09:19:57Z,42.805,6.029,13.3013,4.60062,2470.67,2022-12-20T11:25:51Z
2022-12-20T09:23:00Z,42.805,6.029,13.3010,4.60062,2470.693,2022-12-20T11:28:54Z
2022-12-20T09:26:03Z,42.805,6.029,13.3011,4.60061,2470.67,2022-12-20T11:31:58Z
2022-12-20T09:29:06Z,42.805,6.029,13.3012,4.60062,2470.707,2022-12-20T11:35:01Z
2022-12-20T09:32:09Z,42.805,6.029,13.3012,4.60061,2470.707,2022-12-20T11:38:04Z
2022-12-20T09:35:12Z,42.805,6.029,13.3011,4.60062,2470.703,2022-12-20T11:41:07Z
2022-12-20T09:38:15Z,42.805,6.029,13.3008,4.60062,2470.693,2022-12-20T11:44:10Z
2022-12-20T09:41:18Z,42.805,6.029,13.3013,4.60061,2470.693,2022-12-20T11:47:13Z
2022-12-20T09:44:21Z,42.805,6.029,13.3015,4.60064,2470.707,2022-12-20T11:50:16Z
2022-12-20T09:47:24Z,42.805,6.029,13.3011,4.60063,2470.684,2022-12-20T11:53:19Z
2022-12-20T09:50:28Z,42.805,6.029,13.3013,4.60062,2470.67,2022-12-20T11:56:22Z
2022-12-20T09:53:31Z,42.805,6.029,13.3012,4.60061,2470.67,2022-12-20T11:59:25Z
2022-12-20T09:56:34Z,42.805,6.029,13.3008,4.60062,2470.693,2022-12-20T12:02:28Z
2022-12-20T09:59:37Z,42.805,6.029,13.3014,4.60061,2470.67,2022-12-20T12:05:32Z
2022-12-20T10:02:40Z,42.805,6.029,13.3011,4.60062,2470.693,2022-12-20T12:08:35Z
2022-12-20T10:05:43Z,42.805,6.029,13.3015,4.60061,2470.67,2022-12-20T12:11:38Z
2022-12-20T10:08:46Z,42.805,6.029,13.3014,4.60062,2470.717,2022-12-20T12:14:41Z
2022-12-20T10:11:49Z,42.805,6.029,13.3014,4.60062,2470.684,2022-12-20T12:17:44Z
2022-12-20T10:14:52Z,42.805,6.029,13.3011,4.60062,2470.67,2022-12-20T12:20:47Z
2022-12-20T10:17:55Z,42.805,6.029,13.3011,4.60062,2470.684,2022-12-20T12:23:50Z
2022-12-20T10:20:58Z,42.805,6.029,13.3013,4.60062,2470.67,2022-12-20T12:26:53Z
2022-12-20T10:24:02Z,42.805,6.029,13.3008,4.60062,2470.646,2022-12-20T12:29:56Z
2022-12-20T10:27:05Z,42.805,6.029,13.3013,4.60062,2470.67,2022-12-20T12:32:59Z
2022-12-20T10:30:08Z,42.805,6.029,13.3011,4.60061,2470.67,2022-12-20T12:36:03Z
2022-12-20T10:33:11Z,42.805,6.029,13.3009,4.60061,2470.656,2022-12-20T12:39:06Z
2022-12-20T10:36:14Z,42.805,6.029,13.3014,4.60063,2470.693,2022-12-20T12:42:09Z
2022-12-20T10:39:17Z,42.805,6.029,13.3011,4.60061,2470.693,2022-12-20T12:45:12Z
2022-12-20T10:42:20Z,42.805,6.029,13.3014,4.60061,2470.67,2022-12-20T12:48:15Z
2022-12-20T10:45:23Z,42.805,6.029,13.3013,4.60062,2470.646,2022-12-20T12:51:18Z
2022-12-20T10:48:26Z,42.805,6.029,13.3014,4.60062,2470.67,2022-12-20T12:54:21Z
2022-12-20T10:51:29Z,42.805,6.029,13.3011,4.60061,2470.661,2022-12-20T12:57:24Z
2022-12-20T10:54:32Z,42.805,6.029,13.3011,4.60060,2470.684,2022-12-20T13:00:27Z
2022-12-20T10:57:36Z,42.805,6.029,13.3008,4.60062,2470.646,2022-12-20T13:03:30Z
2022-12-20T11:00:39Z,42.805,6.029,13.3011,4.60060,2470.67,2022-12-20T13:06:33Z
2022-12-20T11:03:42Z,42.805,6.029,13.3011,4.60061,2470.67,2022-12-20T13:09:37Z
2022-12-20T11:06:45Z,42.805,6.029,13.3011,4.60062,2470.646,2022-12-20T13:12:40Z
2022-12-20T11:09:48Z,42.805,6.029,13.3012,4.60061,2470.646,2022-12-20T13:15:43Z
2022-12-20T11:12:51Z,42.805,6.029,13.3012,4.60060,2470.684,2022-12-20T13:18:46Z
2022-12-20T11:15:54Z,42.805,6.029,13.3011,4.60062,2470.67,2022-12-20T13:21:49Z
2022-12-20T11:18:57Z,42.805,6.029,13.3008,4.60061,2470.67,2022-12-20T13:24:52Z
2022-12-20T11:22:00Z,42.805,6.029,13.3011,4.60062,2470.646,2022-12-20T13:27:55Z
2022-12-20T11:25:03Z,42.805,6.029,13.3010,4.60061,2470.624,2022-12-20T13:30:58Z
2022-12-20T11:28:06Z,42.805,6.029,13.3010,4.60062,2470.693,2022-12-20T13:34:01Z
2022-12-20T11:31:10Z,42.805,6.029,13.3014,4.60062,2470.661,2022-12-20T13:37:04Z
2022-12-20T11:34:13Z,42.805,6.029,13.3009,4.60061,2470.67,2022-12-20T13:40:07Z
2022-12-20T11:37:16Z,42.805,6.029,13.3014,4.60062,2470.646,2022-12-20T13:43:11Z
2022-12-20T11:40:19Z,42.805,6.029,13.3011,4.60062,2470.67,2022-12-20T13:46:14Z
2022-12-20T11:43:22Z,42.805,6.029,13.3013,4.60062,2470.67,2022-12-20T13:49:17Z
2022-12-20T11:46:25Z,42.805,6.029,13.3011,4.60062,2470.684,2022-12-20T13:52:20Z
2022-12-20T11:49:28Z,42.805,6.029,13.3013,4.60062,2470.661,2022-12-20T13:55:23Z
2022-12-20T11:52:31Z,42.805,6.029,13.3014,4.60062,2470.646,2022-12-20T13:58:26Z
2022-12-20T11:55:34Z,42.805,6.029,13.3011,4.60061,2470.67,2022-12-20T14:01:29Z
2022-12-20T11:58:37Z,42.805,6.029,13.3015,4.60061,2470.67,2022-12-20T14:04:32Z
2022-12-20T12:01:40Z,42.805,6.029,13.3015,4.60062,2470.646,2022-12-20T14:07:35Z
2022-12-20T12:04:44Z,42.805,6.029,13.3015,4.60062,2470.656,2022-12-20T14:10:38Z
2022-12-20T12:07:47Z,42.805,6.029,13.3012,4.60061,2470.67,2022-12-20T14:13:42Z
2022-12-20T12:10:50Z,42.805,6.029,13.3011,4.60061,2470.661,2022-12-20T14:16:45Z
2022-12-20T12:13:53Z,42.805,6.029,13.3014,4.60062,2470.67,2022-12-20T14:19:48Z
2022-12-20T12:16:56Z,42.805,6.029,13.3011,4.60062,2470.67,2022-12-20T14:22:51Z
2022-12-20T12:19:59Z,42.805,6.029,13.3011,4.60063,2470.67,2022-12-20T14:25:54Z
2022-12-20T12:23:02Z,42.805,6.029,13.3011,4.60062,2470.624,2022-12-20T14:28:57Z
2022-12-20T12:26:05Z,42.805,6.029,13.3014,4.60061,2470.67,2022-12-20T14:32:00Z
2022-12-20T12:29:08Z,42.805,6.029,13.3014,4.60060,2470.646,2022-12-20T14:35:03Z
2022-12-20T12:32:11Z,42.805,6.029,13.3012,4.60061,2470.661,2022-12-20T14:38:06Z
2022-12-20T12:35:14Z,42.805,6.029,13.3015,4.60062,2470.693,2022-12-20T14:41:09Z
2022-12-20T12:38:18Z,42.805,6.029,13.3015,4.60062,2470.646,2022-12-20T14:44:12Z
2022-12-20T12:41:21Z,42.805,6.029,13.3012,4.60062,2470.67,2022-12-20T14:47:16Z
2022-12-20T12:44:24Z,42.805,6.029,13.3011,4.60060,2470.661,2022-12-20T14:50:19Z
2022-12-20T12:47:27Z,42.805,6.029,13.3014,4.60061,2470.684,2022-12-20T14:53:22Z
2022-12-20T12:50:30Z,42.805,6.029,13.3013,4.60061,2470.684,2022-12-20T14:56:25Z
2022-12-20T12:53:33Z,42.805,6.029,13.3011,4.60061,2470.624,2022-12-20T14:59:28Z
2022-12-20T12:56:36Z,42.805,6.029,13.3008,4.60059,2470.646,2022-12-20T15:02:31Z
2022-12-20T12:59:39Z,42.805,6.029,13.3012,4.60061,2470.661,2022-12-20T15:05:34Z
2022-12-20T13:02:42Z,42.805,6.029,13.3014,4.60062,2470.693,2022-12-20T15:08:37Z
2022-12-20T13:05:45Z,42.805,6.029,13.3010,4.60061,2470.67,2022-12-20T15:11:40Z
2022-12-20T13:08:48Z,42.805,6.029,13.3012,4.60062,2470.67,2022-12-20T15:14:43Z
2022-12-20T13:11:52Z,42.805,6.029,13.3005,4.60062,2470.646,2022-12-20T15:17:46Z
2022-12-20T13:14:55Z,42.805,6.029,13.3011,4.60061,2470.67,2022-12-20T15:20:50Z
2022-12-20T13:17:58Z,42.805,6.029,13.3013,4.60061,2470.67,2022-12-20T15:23:53Z
2022-12-20T13:21:01Z,42.805,6.029,13.3009,4.60061,2470.693,2022-12-20T15:26:56Z
2022-12-20T13:24:04Z,42.805,6.029,13.3010,4.60062,2470.67,2022-12-20T15:29:59Z
2022-12-20T13:27:07Z,42.805,6.029,13.3014,4.60062,2470.67,2022-12-20T15:33:02Z
2022-12-20T13:30:10Z,42.805,6.029,13.3009,4.60061,2470.684,2022-12-20T15:36:05Z
2022-12-20T13:33:13Z,42.805,6.029,13.3016,4.60062,2470.707,2022-12-20T15:39:08Z
2022-12-20T13:36:16Z,42.805,6.029,13.3010,4.60061,2470.693,2022-12-20T15:42:11Z
2022-12-20T13:39:19Z,42.805,6.029,13.3013,4.60061,2470.684,2022-12-20T15:45:14Z
2022-12-20T13:42:22Z,42.805,6.029,13.3010,4.60061,2470.707,2022-12-20T15:48:17Z
2022-12-20T13:45:26Z,42.805,6.029,13.3011,4.60062,2470.717,2022-12-20T15:51:20Z
2022-12-20T13:48:29Z,42.805,6.029,13.3009,4.60062,2470.684,2022-12-20T15:54:24Z
2022-12-20T13:51:32Z,42.805,6.029,13.3011,4.60062,2470.679,2022-12-20T15:57:27Z
2022-12-20T13:54:35Z,42.805,6.029,13.3013,4.60061,2470.703,2022-12-20T16:00:30Z
2022-12-20T13:57:38Z,42.805,6.029,13.3016,4.60062,2470.67,2022-12-20T16:03:33Z
2022-12-20T14:00:41Z,42.805,6.029,13.3011,4.60061,2470.707,2022-12-20T16:06:36Z
2022-12-20T14:03:44Z,42.805,6.029,13.3014,4.60062,2470.74,2022-12-20T16:09:39Z
2022-12-20T14:06:47Z,42.805,6.029,13.3011,4.60061,2470.707,2022-12-20T16:12:42Z
2022-12-20T14:09:50Z,42.805,6.029,13.3011,4.60062,2470.693,2022-12-20T16:15:45Z
2022-12-20T14:12:53Z,42.805,6.029,13.3011,4.60062,2470.707,2022-12-20T16:18:48Z
2022-12-20T14:15:56Z,42.805,6.029,13.3015,4.60062,2470.693,2022-12-20T16:21:51Z
2022-12-20T14:19:00Z,42.805,6.029,13.3011,4.60062,2470.717,2022-12-20T16:24:54Z
2022-12-20T14:22:03Z,42.805,6.029,13.3012,4.60062,2470.707,2022-12-20T16:27:58Z
2022-12-20T14:25:06Z,42.805,6.029,13.3010,4.60062,2470.693,2022-12-20T16:31:01Z
2022-12-20T14:28:09Z,42.805,6.029,13.3012,4.60062,2470.73,2022-12-20T16:34:04Z
2022-12-20T14:31:12Z,42.805,6.029,13.3014,4.60061,2470.717,2022-12-20T16:37:07Z
2022-12-20T14:34:15Z,42.805,6.029,13.3012,4.60062,2470.754,2022-12-20T16:40:10Z
2022-12-20T14:37:18Z,42.805,6.029,13.3008,4.60061,2470.693,2022-12-20T16:43:13Z
2022-12-20T14:40:21Z,42.805,6.029,13.3014,4.60062,2470.703,2022-12-20T16:46:16Z
2022-12-20T14:43:24Z,42.805,6.029,13.3011,4.60062,2470.754,2022-12-20T16:49:19Z
2022-12-20T14:46:27Z,42.805,6.029,13.3007,4.60062,2470.74,2022-12-20T16:52:22Z
2022-12-20T14:49:30Z,42.805,6.029,13.3013,4.60063,2470.717,2022-12-20T16:55:25Z
2022-12-20T14:52:34Z,42.805,6.029,13.3012,4.60062,2470.74,2022-12-20T16:58:29Z
2022-12-20T14:55:37Z,42.805,6.029,13.3014,4.60062,2470.717,2022-12-20T17:01:32Z
2022-12-20T14:58:40Z,42.805,6.029,13.3011,4.60062,2470.74,2022-12-20T17:04:35Z
2022-12-20T15:01:43Z,42.805,6.029,13.3010,4.60062,2470.717,2022-12-20T17:07:38Z